Погода в Клецке

Беларусь     53°03′57″N   26°38′00″E
темп.,
°C
ветер,
м/с
пор.,
м/с
влажн.,
%
обл.,
%
осадки,
мм/ч
давл.,
гПа
погр.,
м
15 мая, сб
сб1500:00+11ююз229098 0.9 100412
03:00+11зюз229299 0.9 100420
06:00+9юз239613 0.0 100543
09:00+14зюз348742 0.0 1006420
12:00+17з457688 1.1 1006952
15:00+19з566658 3.1 10061473
18:00+17з578010 1.7 1007818
21:00+12з489355 2.4 1009208
16 мая, вс
вс1600:00+9з34945 0.0 101067
03:00+8зюз22935 0.0 101020
06:00+8юз22945 0.0 101125
09:00+13ю238193 0.0 1011333
12:00+17ю346358 0.0 10111148
15:00+19ююв4557100 0.0 10101696
18:00+19юв476813 0.1 1008812
21:00+14юв4889100 1.2 1008142
17 мая, пн
пн1700:00+14ю61391100 1.9 1008398
03:00+13юв239658 2.1 100769
06:00+12ююв3898100 1.0 1006253
09:00+14ююз3495100 1.6 1007368
12:00+16ююв2284100 0.6 1006499
15:00+17з2379100 2.3 1005665
18:00+17зсз3480100 0.3 1004618
21:00+13сз4892100 0.8 1003221
18 мая, вт
вт1800:00+12сз4795100 0.0 1002139
03:00+10зсз4896100 0.0 1002162
06:00+10зсз41096100 0.0 1002259
09:00+13з6885100 0.0 1003475
12:00+15з677494 0.1 10041075
15:00+16зюз687291 0.5 10051186
18:00+16з5871100 0.2 10061245
21:00+11з37880 0.2 1008147
19 мая, ср
ср1900:00+8зюз37940 0.0 1009136
03:00+7з37960 0.0 1009136
06:00+7зюз379711 0.0 1010148
09:00+12з458330 0.0 1010511
12:00+16зюз566630 0.3 10101343
15:00+17з555791 0.4 10091777
18:00+16сз347087 0.5 1009879
21:00+12ссз3385100 0.6 101023